Tracking 32427 objects as of 11-Dec-2025
HD Live streaming from Space Station
objects crossing your sky now

STARLINK-1283

Track STARLINK-1283 now!
10-day predictions
STARLINK-1283 is classified as:


NORAD ID: 45389
Int'l Code: 2020-019AF
Perigee: 458.6 km
Apogee: 472.9 km
Inclination: 53.1 °
Period: 93.8 minutes
Semi major axis: 6836 km
RCS: Unknown
Launch date: March 18, 2020
Source: United States (US)
Launch site: AIR FORCE EASTERN TEST RANGE (AFETR)
Your satellite tracking list
Your tracking list is empty




NASA's NSSDC Master Catalog

Two Line Element Set (TLE):
1 45389U 20019AF  25344.81909990  .00090568  00000-0  25415-2 0  9991
2 45389  53.0510 174.4673 0010442 140.9873 219.1884 15.35774161316777
Source of the keplerian elements: AFSPC